Iron Mountain, MI

4:48 PM CST on November 24, 2017 (GMT -0600)
Ford

Weather History for KIMT - June, 2012

Change the Weather History Date:

Saturday, June 9, 2012

  Actual Average Record
Temperature  
Mean Temperature 76 °F -  
Max Temperature 91 °F 74 °F 91 °F (1959)
Min Temperature 60 °F 46 °F 31 °F (1937)
Cooling Degree Days 10    
Growing Degree Days 26 (Base 50)    
Moisture  
Dew Point 58 °F    
Average Humidity 57    
Maximum Humidity 96    
Minimum Humidity 30    
Precipitation  
Precipitation 0.00 in - - ()
Sea Level Pressure  
Sea Level Pressure 29.75 in    
Wind  
Wind Speed 4 mph (SW)    
Max Wind Speed 13 mph    
Max Gust Speed 18 mph    
Visibility 10 miles    
Events      
Averages and records for this station are not official NWS values.
T = Trace of Precipitation, MM = Missing Value Source: NWS Daily Summary

Daily Weather History Graph

Daily Weather History Graph

Search for Another Location

Airport or City:

Trip Planner

Search our weather history database for the weather conditions in past years. The results will help you decide how hot, cold, wet, or windy it might be!

Date:

Astronomy

Jun. 09, 2012 Rise Set
Actual Time 5:02 AM CDT 8:41 PM CDT
Civil Twilight 4:24 AM CDT 9:19 PM CDT
Nautical Twilight 3:33 AM CDT 10:10 PM CDT
Astronomical Twilight 2:25 AM CDT 11:19 PM CDT
Moon No Moon Rise 11:02 AM CDT (6/9)
Length of Visible Light 16h 55m
Length of Day
15h 39m
Waning Gibbous, 68% of the Moon is Illuminated
Jun 9
Waning Gibbous
Jun 11
Last Quarter
Jun 19
New
Jun 26
First Quarter
Jul 3
Full

Hourly Weather History & Observations

Time (CDT) Temp. Heat Index Dew Point Humidity Pressure Visibility Wind Dir Wind Speed Gust Speed Precip Events Conditions
12:54 AM 66.0 °F - 62.1 °F 87% 29.74 in 10.0 mi Calm Calm - N/A   Clear
1:54 AM 66.0 °F - 62.1 °F 87% 29.75 in 10.0 mi Calm Calm - N/A   Partly Cloudy
2:54 AM 66.0 °F - 60.1 °F 81% 29.78 in 10.0 mi Calm Calm - N/A   Scattered Clouds
3:54 AM 61.0 °F - 59.0 °F 93% 29.76 in 10.0 mi SSE 3.5 mph - N/A   Scattered Clouds
4:54 AM 60.1 °F - 59.0 °F 96% 29.76 in 9.0 mi Calm Calm - N/A   Partly Cloudy
5:54 AM 61.0 °F - 59.0 °F 93% 29.77 in 9.0 mi NNE 3.5 mph - N/A   Scattered Clouds
6:54 AM 66.0 °F - 61.0 °F 84% 29.77 in 10.0 mi Calm Calm - N/A   Scattered Clouds
7:54 AM 72.0 °F - 59.0 °F 64% 29.76 in 10.0 mi Variable 3.5 mph - N/A   Clear
8:54 AM 78.1 °F - 57.9 °F 50% 29.76 in 10.0 mi WSW 9.2 mph - N/A   Clear
9:54 AM 82.0 °F 82.0 °F 57.9 °F 44% 29.75 in 10.0 mi West 9.2 mph 17.3 mph N/A   Clear
10:54 AM 84.9 °F 83.9 °F 57.0 °F 38% 29.74 in 10.0 mi WSW 9.2 mph 17.3 mph N/A   Clear
11:54 AM 88.0 °F 86.7 °F 57.0 °F 35% 29.74 in 10.0 mi WSW 10.4 mph 18.4 mph N/A   Clear
12:54 PM 90.0 °F 88.8 °F 57.9 °F 34% 29.75 in 10.0 mi WSW 12.7 mph 17.3 mph N/A   Clear
1:54 PM 91.0 °F 89.7 °F 57.0 °F 32% 29.73 in 10.0 mi WSW 10.4 mph - N/A   Clear
2:54 PM 91.0 °F 89.2 °F 55.9 °F 30% 29.73 in 10.0 mi West 8.1 mph 18.4 mph N/A   Clear
3:54 PM 91.0 °F 89.2 °F 55.9 °F 30% 29.73 in 10.0 mi SW 9.2 mph 17.3 mph N/A   Clear
4:54 PM 90.0 °F 88.1 °F 55.9 °F 31% 29.73 in 10.0 mi SW 11.5 mph - N/A   Clear
5:54 PM 88.0 °F 86.7 °F 57.0 °F 35% 29.73 in 10.0 mi SW 11.5 mph - N/A   Clear
6:54 PM 87.1 °F 85.9 °F 57.0 °F 36% 29.72 in 10.0 mi SW 8.1 mph - N/A   Clear
7:54 PM 84.0 °F 83.5 °F 57.9 °F 41% 29.73 in 10.0 mi SSW 5.8 mph - N/A   Clear
8:54 PM 75.9 °F - 57.9 °F 54% 29.74 in 10.0 mi Calm Calm - N/A   Clear
9:54 PM 70.0 °F - 59.0 °F 68% 29.76 in 10.0 mi South 3.5 mph - N/A   Clear
10:54 PM 70.0 °F - 59.0 °F 68% 29.77 in 10.0 mi South 4.6 mph - N/A   Clear
11:54 PM 71.1 °F - 57.0 °F 61% 29.78 in 10.0 mi SSW 4.6 mph - N/A   Clear